Regional Weather Roundup
Issued by NWS

Home | Current Version | Previous Version | Graphics & Text | Print | Product List | Glossary On
Versions: 1 2 3 4 5 6 7 8 9 10 11 12 13 14 15 16 17 18 19 20 21 22 23 24 25 26 27 28 29 30 31 32 33 34 35 36 37 38 39 40 41 42 43 44 45 46 47 48 49 50
000
ASUS43 KBIS 200410
RWRND

NORTH DAKOTA REGIONAL WEATHER ROUNDUP
NATIONAL WEATHER SERVICE BISMARCK ND
1000 PM CST FRI DEC 19 2014

NOTE: "FAIR" INDICATES FEW OR NO CLOUDS BELOW 12,000 FEET WITH NO
SIGNIFICANT WEATHER AND/OR OBSTRUCTIONS TO VISIBILITY.


NDZ001>003-009>011-017-200500-
NORTHWEST NORTH DAKOTA

CITY           SKY/WX    TMP DP  RH WIND       PRES   REMARKS
WILLISTON      FOG       18  16  92 CALM      29.92R VSB 1/2
MINOT          CLOUDY    25  23  92 S7        29.93S FOG     WCI  17
MINOT AFB      FRZ DRZL  25  25 100 SW8       29.93F FOG     WCI  16
$$

NDZ018>021-031>035-040>046-200500-
SOUTHWEST NORTH DAKOTA

CITY           SKY/WX    TMP DP  RH WIND       PRES   REMARKS
BISMARCK       CLEAR     19  18  95 E3        29.95S
DICKINSON      CLEAR     24  19  81 S6        29.87F WCI  17
GARRISON         N/A     28  26  92 CALM      29.93R
HETTINGER ARPT CLEAR     19  16  88 CALM      29.91S
$$

NDZ004>008-012>016-024-026-027-054-200500-
NORTHEAST NORTH DAKOTA

CITY           SKY/WX    TMP DP  RH WIND       PRES   REMARKS
GRAND FORKS    CLOUDY    30  28  92 S7        29.99F
GRND FRKS AFB  CLOUDY    29  29 100 S6        29.99S
DEVILS LAKE    CLOUDY    27  19  74 SW6       29.94R WCI  20
$$

NDZ022-023-025-028>030-036>039-047>053-200500-
SOUTHEAST NORTH DAKOTA

CITY           SKY/WX    TMP DP  RH WIND       PRES   REMARKS
FARGO          CLOUDY    32  28  85 S9        30.02R
JAMESTOWN      FOG       24  23  96 SW5       29.96R VSB 1/4 WCI  18
$$




USA.gov is the U.S. government's official web portal to all federal, state and local government web resources and services.